This is the latest recevied weather packets stored in our database for station/object W9WRP. If no packets are shown the sender has not sent any weather packets the latest 10 day(s).
| Time | Temp. | Humidity | Pressure | Rain* | Wind** | Luminosity | Snow |
|---|---|---|---|---|---|---|---|
| 1788034298 | 42.78° C | 22% | 1013.2 hPa | 0 mm | - | 717 W/m² | - |
| 1788033992 | 43.33° C | 22% | 1013.4 hPa | 0 mm | - | 722 W/m² | - |
| 1788033682 | 42.78° C | 22% | 1013.4 hPa | 0 mm | - | 731 W/m² | - |
| 1788033380 | 42.78° C | 23% | 1013.4 hPa | 0 mm | - | 734 W/m² | - |
| 1788033075 | 42.22° C | 23% | 1013.2 hPa | 0 mm | - | 737 W/m² | - |
| 1788032770 | 42.22° C | 23% | 1013.5 hPa | 0 mm | - | 756 W/m² | - |
| 1788032465 | 42.22° C | 23% | 1013.6 hPa | 0 mm | - | 211 W/m² | - |
| 1788032160 | 41.67° C | 24% | 1013.6 hPa | 0 mm | - | 790 W/m² | - |
| 1788031856 | 40.56° C | 25% | 1013.6 hPa | 0 mm | - | 790 W/m² | - |
| 1788031556 | 40° C | 27% | 1013.7 hPa | 0 mm | - | 109 W/m² | - |
| 1788031250 | 40.56° C | 26% | 1013.8 hPa | 0 mm | - | 94 W/m² | - |
| 1788030949 | 41.11° C | 25% | 1013.9 hPa | 0 mm | - | 109 W/m² | - |
| 1788030649 | 41.11° C | 25% | 1014.1 hPa | 0 mm | - | 618 W/m² | - |
| 1788030343 | 41.67° C | 24% | 1014 hPa | 0 mm | - | 790 W/m² | - |
| 1788030039 | 40° C | 26% | 1014.3 hPa | 0 mm | - | 491 W/m² | - |
| 1788029733 | 41.11° C | 25% | 1014.4 hPa | 0 mm | - | 226 W/m² | - |
| 1788029423 | 41.11° C | 26% | 1014.7 hPa | 0 mm | - | 730 W/m² | - |
| 1788029121 | 41.67° C | 24% | 1014.6 hPa | 0 mm | - | 862 W/m² | - |
| 1788028811 | 41.11° C | 24% | 1014.7 hPa | 0 mm | - | 687 W/m² | - |
| 1788028511 | 41.11° C | 25% | 1015 hPa | 0 mm | - | 802 W/m² | - |
| 1788028206 | 41.11° C | 25% | 1014.9 hPa | 0 mm | - | 747 W/m² | - |
| 1788027902 | 40.56° C | 25% | 1014.9 hPa | 0 mm | - | 714 W/m² | - |
| 1788027596 | 40.56° C | 25% | 1014.7 hPa | 0 mm | - | 713 W/m² | - |
| 1788027296 | 40° C | 25% | 1015.1 hPa | 0 mm | - | 708 W/m² | - |
| 1788026990 | 40° C | 26% | 1015.1 hPa | 0 mm | - | 700 W/m² | - |
* Rain latest hour (hover to see other rain measurements)
** Current wind speed in m/s (hover to see current wind gust speed)